Temp
48 47 42 47 47 44 43 40 39 42 46 45 43 44 49 51 49 50 51 49 50 51 54 55 56 55 54 54 56 58 60 62 63 62 63 63 63 64 65 66 65 64 64 62
46 41 49 49 48 46 44 41 39 43 46 44 42 45 49 49 51 50 52 49 50 49 51 54 53 49 52 53 54 56 59 61 62 64 64 64 67 66 67 66 65 65 64 64
44 47 50 49 44 45 40 41 39 40 40 41 40 42 43 47 47 49 49 47 48 49 49 51 52 51 50 49 50 53 56 59 61 64 60 54 56 57 62 63 64 64 65 64
45 47 48 44 43 45 39 46 44 42 38 35 38 34 41 43 46 47 47 46 46 47 49 49 50 50 49 49 49 51 53 55 57 60 59 60 61 61 63 65 65 64 64 64
43 45 44 43 46 48 43 45 43 39 36 33 35 34 41 40 42 46 47 47 47 47 47 48 49 50 49 47 46 47 50 52 55 57 60 59 60 61 58 56 59 63 62 63
42 44 45 46 44 45 44 43 40 35 34 29 33 33 36 39 41 42 45 46 46 46 47 48 48 49 48 47 47 47 49 50 52 54 56 57 58 57 53 52 54 55 59 61
38 39 42 46 42 44 42 40 30 28 25 26 30 31 37 42 44 44 43 45 45 45 47 48 48 48 48 48 47 47 47 48 49 51 52 53 54 54 54 52 52 50 53 53
35 34 42 46 44 41 39 40 31 24 22 27 31 30 38 41 43 47 45 44 45 47 47 47 47 47 47 47 47 47 47 47 46 47 48 49 50 51 52 51 50 52 52 53
35 35 41 43 44 48 39 36 40 29 15 23 30 33 40 41 44 44 45 47 47 47 47 47 47 47 46 47 46 45 45 46 46 46 46 46 46 47 48 49 49 49 49 49
44 36 39 40 44 43 41 44 34 30 19 18 26 30 33 37 40 41 44 44 46 46 47 47 47 46 46 45 45 47 45 44 44 45 45 45 45 45 45 45 46 46 47 46
43 40 34 40 38 38 39 36 35 37 32 23 20 30 40 42 42 42 42 45 44 45 44 44 44 44 45 45 46 45 46 45 45 45 44 44 44 44 44 44 45 45 45 45
43 39 30 35 38 39 37 39 38 31 27 26 28 31 45 44 43 43 42 44 42 43 42 43 43 43 43 43 43 43 44 44 44 44 44 43 44 43 43 43 44 44 44 43
44 35 23 31 35 35 34 36 37 35 31 26 26 30 42 40 41 41 42 41 42 42 43 42 42 41 42 42 42 41 41 41 41 41 41 43 43 43 43 42 42 42 42 41
46 35 36 34 34 36 33 34 36 40 30 32 31 33 37 38 40 40 40 40 40 41 42 41 41 40 41 41 41 41 40 40 39 39 39 38 38 39 40 40 40 39 39 38
41 30 32 32 34 34 34 35 35 36 41 36 36 36 42 42 41 39 40 41 40 40 40 40 40 40 40 41 42 42 42 41 38 37 37 37 37 37 36 35 35 35 35 37
40 32 33 31 34 34 31 33 34 34 34 34 34 34 43 44 42 40 40 40 39 38 39 39 39 39 40 40 40 41 40 39 37 36 36 36 34 33 33 33 33 33 33 33
35 33 32 28 31 32 30 31 33 33 34 37 33 38 40 40 40 40 39 39 38 38 38 38 38 38 38 37 37 37 37 35 33 33 34 33 32 32 33 33 32 33 33 32
33 32 31 22 27 23 31 32 35 36 37 40 38 37 39 39 39 40 39 38 37 38 38 38 37 37 37 36 36 35 33 32 32 33 32 31 32 31 31 30 30 31 31 30
37 31 22 23 22 26 29 34 34 35 36 39 37 37 35 36 35 35 38 38 38 36 37 37 36 36 36 35 35 32 33 32 32 33 32 31 30 29 29 28 29 29 29 29
34 35 31 20 17 15 27 33 35 38 27 35 38 36 33 32 28 31 36 37 36 35 36 36 35 34 33 34 32 31 31 29 30 31 31 30 29 27 26 28 27 26 26 27
28 26 25 16 13 19 30 32 35 23 28 27 35 35 33 32 34 35 36 34 35 35 35 34 33 33 33 32 30 29 29 29 31 28 28 27 26 24 25 25 22 25 24 24
29 27 26 22 20 18 33 31 31 34 31 32 33 34 35 35 34 34 34 34 34 34 34 33 31 31 31 30 26 27 27 29 25 25 25 24 24 24 26 21 22 20 21 28
23 29 26 29 28 33 32 34 35 34 33 33 34 34 35 34 33 33 33 33 33 33 32 32 27 28 28 25 22 24 27 25 23 25 26 27 25 24 23 20 22 22 20 27
24 29 26 27 27 30 33 34 34 35 34 34 34 35 34 32 31 31 31 31 30 28 26 23 22 22 23 22 22 21 22 22 15 16 20 24 26 26 27 22 22 20 19 20
27 29 24 23 28 31 32 33 35 35 35 34 33 33 31 30 29 28 27 25 25 24 22 20 22 22 22 22 21 15 18 13 13 14 17 18 23 26 28 28 22 23 22 21
28 27 27 24 33 33 34 35 35 34 34 34 32 29 29 28 28 26 24 22 21 20 19 18 18 17 18 18 17 16 8 7 7 11 16 18 19 22 26 27 26 29 32 34
MSLP
1014.70 1015.51 1015.84 1016.13 1016.61 1016.65 1016.93 1017.34 1017.54 1017.31 1017.48 1017.61 1018.13 1018.01 1017.45 1017.00 1017.54 1017.39 1017.42 1017.54 1017.41 1017.21 1016.32 1016.32 1015.99 1015.92 1016.41 1016.87 1017.42 1017.33 1017.71 1017.85 1018.49 1019.02 1019.46 1019.79 1019.79 1020.15 1020.43 1020.54 1020.94 1021.33 1021.80 1022.39
1015.37 1015.72 1015.66 1016.00 1016.65 1016.88 1017.05 1017.54 1017.81 1017.70 1017.77 1018.15 1018.57 1018.31 1017.72 1017.14 1017.14 1017.42 1017.47 1017.33 1017.31 1017.10 1016.78 1016.40 1016.03 1015.93 1016.23 1016.43 1016.57 1016.97 1016.93 1017.37 1017.70 1018.19 1018.48 1018.98 1019.21 1019.48 1019.57 1019.96 1020.24 1020.54 1020.97 1021.41
1015.24 1015.45 1015.52 1015.94 1016.80 1017.08 1017.43 1017.57 1018.02 1018.17 1018.42 1018.86 1019.17 1018.75 1018.19 1017.06 1017.38 1017.43 1017.35 1017.36 1017.44 1017.37 1017.13 1016.95 1016.61 1016.53 1016.43 1016.59 1016.77 1016.92 1016.85 1016.97 1017.29 1017.68 1018.31 1018.91 1019.28 1019.54 1019.36 1019.38 1019.67 1019.83 1020.22 1020.61
1015.27 1015.66 1015.64 1016.25 1016.72 1016.99 1017.80 1017.57 1018.09 1018.86 1019.34 1020.06 1020.18 1020.15 1018.76 1017.91 1017.96 1017.88 1018.01 1017.84 1017.88 1018.00 1017.59 1017.49 1017.32 1017.15 1017.15 1016.93 1016.63 1016.50 1016.66 1016.72 1016.83 1017.23 1017.78 1018.16 1018.50 1018.72 1018.52 1018.77 1019.07 1019.30 1019.54 1019.75
1015.17 1015.37 1015.94 1016.18 1016.43 1016.59 1017.82 1017.91 1018.71 1019.57 1020.31 1020.95 1021.10 1021.03 1018.88 1018.34 1018.26 1018.54 1018.58 1018.68 1018.51 1018.46 1018.21 1018.14 1018.02 1017.89 1017.78 1017.49 1017.33 1017.06 1016.84 1016.77 1016.82 1016.98 1017.29 1017.80 1018.22 1018.23 1018.38 1018.58 1018.81 1018.97 1019.04 1019.15
1015.67 1015.68 1015.91 1015.94 1016.60 1016.74 1017.88 1018.75 1019.91 1020.67 1021.43 1022.12 1021.77 1021.43 1019.60 1018.88 1018.56 1018.88 1019.12 1019.05 1019.03 1018.97 1018.58 1018.33 1018.25 1018.10 1018.09 1017.92 1017.83 1017.59 1017.45 1017.43 1017.36 1017.29 1017.38 1017.60 1017.80 1018.06 1018.42 1018.62 1018.79 1018.83 1018.89 1018.98
1016.03 1016.11 1016.17 1016.09 1017.06 1017.44 1017.88 1019.31 1021.08 1022.30 1022.70 1023.19 1022.52 1022.13 1019.97 1018.86 1018.48 1018.88 1019.34 1019.32 1019.22 1019.29 1019.13 1019.01 1018.96 1018.79 1018.65 1018.53 1018.38 1018.17 1018.11 1018.13 1017.91 1017.89 1017.91 1017.94 1018.05 1018.21 1018.39 1018.49 1018.64 1018.88 1018.89 1018.89
1016.19 1016.72 1016.15 1016.09 1016.45 1016.87 1017.93 1018.80 1020.19 1021.95 1023.49 1023.56 1023.14 1021.62 1019.92 1019.22 1018.80 1019.02 1019.42 1019.49 1019.47 1019.45 1019.44 1019.52 1019.55 1019.49 1019.37 1019.29 1018.86 1018.79 1018.71 1018.59 1018.42 1018.29 1018.33 1018.33 1018.44 1018.51 1018.45 1018.42 1018.52 1018.52 1018.51 1018.41
1015.59 1015.88 1016.08 1016.18 1016.09 1016.41 1018.17 1018.78 1019.56 1021.60 1024.23 1023.85 1022.52 1020.99 1020.10 1019.86 1019.57 1019.52 1019.61 1019.57 1019.85 1019.94 1020.04 1020.17 1020.14 1020.10 1019.97 1019.83 1019.89 1019.69 1019.35 1019.26 1018.89 1018.71 1018.42 1018.43 1018.48 1018.54 1018.61 1018.56 1018.56 1018.52 1018.51 1018.53
1014.61 1016.05 1016.57 1016.44 1016.38 1016.89 1017.10 1017.98 1019.58 1021.23 1023.11 1023.76 1022.61 1021.45 1020.34 1020.59 1020.09 1019.93 1019.98 1020.11 1020.24 1020.46 1020.57 1020.75 1020.91 1020.86 1020.53 1020.56 1020.20 1020.00 1019.85 1019.96 1019.82 1019.24 1019.03 1018.95 1018.87 1018.70 1018.39 1018.63 1018.45 1018.39 1018.30 1018.37
1014.40 1015.06 1017.39 1017.18 1016.76 1016.65 1017.50 1017.90 1018.93 1019.95 1021.25 1022.08 1022.21 1020.89 1019.39 1020.14 1020.33 1020.19 1020.32 1020.45 1020.51 1020.90 1021.31 1021.62 1021.68 1021.61 1021.31 1021.04 1020.77 1020.66 1020.43 1020.47 1020.16 1019.91 1019.44 1019.17 1018.95 1018.76 1018.70 1018.70 1018.36 1018.19 1018.03 1017.97
1014.49 1015.46 1017.11 1017.02 1016.78 1016.73 1016.61 1017.06 1017.73 1019.39 1021.06 1021.44 1021.15 1020.37 1019.66 1020.11 1020.48 1020.61 1020.80 1021.01 1021.17 1021.45 1021.79 1021.95 1022.04 1021.94 1021.94 1021.82 1021.66 1021.62 1021.41 1021.46 1021.18 1020.82 1020.15 1019.84 1019.51 1019.00 1018.66 1018.52 1018.36 1018.07 1017.86 1017.70
1014.40 1015.30 1017.05 1017.70 1017.70 1017.43 1017.24 1017.44 1017.78 1018.52 1019.50 1020.29 1020.84 1020.18 1019.97 1020.35 1020.90 1020.99 1021.22 1021.56 1021.77 1022.03 1022.26 1022.31 1022.29 1022.31 1022.48 1022.47 1022.30 1022.28 1022.09 1021.79 1021.48 1021.00 1020.57 1020.32 1019.92 1019.47 1019.11 1018.68 1018.31 1017.92 1017.70 1017.43
1014.30 1015.42 1015.93 1016.13 1016.39 1016.64 1017.72 1017.57 1017.87 1018.19 1019.34 1019.20 1019.06 1019.58 1020.12 1020.37 1020.97 1021.31 1021.63 1021.71 1022.01 1022.30 1022.60 1022.68 1022.67 1022.70 1022.80 1022.74 1022.58 1022.37 1022.13 1021.72 1021.41 1021.24 1021.11 1020.97 1020.61 1020.22 1019.72 1019.15 1018.63 1018.18 1017.76 1017.37
1014.97 1015.97 1016.65 1017.18 1017.15 1016.92 1016.94 1017.18 1017.74 1017.92 1017.60 1018.58 1018.10 1018.65 1018.62 1019.28 1020.46 1021.08 1021.59 1021.88 1022.11 1022.40 1022.64 1022.81 1022.95 1022.95 1022.82 1022.51 1022.12 1021.79 1021.34 1021.32 1021.58 1021.49 1021.31 1021.09 1020.77 1020.46 1020.02 1019.47 1018.92 1018.32 1017.80 1017.33
1015.90 1016.84 1017.41 1018.25 1018.14 1018.01 1017.68 1017.69 1017.84 1017.92 1017.74 1018.08 1018.32 1018.73 1018.47 1019.13 1020.00 1020.89 1021.44 1021.94 1022.30 1022.59 1022.85 1022.97 1022.88 1022.72 1022.27 1021.85 1021.77 1021.77 1021.79 1021.71 1021.65 1021.42 1021.24 1021.01 1020.68 1020.32 1019.95 1019.45 1018.97 1018.42 1017.79 1017.36
1016.87 1017.36 1018.03 1018.86 1018.79 1018.64 1018.66 1017.40 1017.65 1017.69 1017.60 1017.69 1018.11 1018.26 1018.88 1019.63 1019.93 1020.51 1021.31 1021.81 1022.14 1022.49 1022.67 1022.81 1022.80 1022.85 1022.72 1022.73 1022.78 1022.72 1022.55 1022.35 1022.08 1021.77 1021.39 1021.09 1020.68 1020.20 1019.63 1019.27 1018.80 1018.18 1017.66 1017.19
1017.29 1017.97 1018.74 1019.71 1019.58 1019.16 1017.61 1017.25 1016.86 1017.23 1017.35 1017.58 1017.98 1018.38 1018.83 1019.52 1020.04 1020.50 1020.99 1021.63 1022.09 1022.44 1022.62 1022.85 1022.98 1023.07 1023.10 1023.09 1022.86 1022.75 1022.58 1022.39 1022.19 1021.81 1021.44 1021.12 1020.81 1020.43 1019.86 1019.34 1018.91 1018.37 1017.81 1017.32
1017.07 1018.08 1019.65 1020.16 1020.07 1019.20 1018.00 1017.34 1017.06 1017.02 1016.99 1017.00 1017.99 1019.02 1019.66 1020.22 1020.65 1020.84 1021.16 1021.56 1022.00 1022.57 1022.94 1023.13 1023.36 1023.54 1023.43 1023.37 1023.20 1022.99 1022.63 1022.37 1022.17 1021.83 1021.52 1021.24 1021.04 1020.56 1020.01 1019.48 1018.89 1018.38 1017.77 1017.19
1017.71 1017.67 1018.45 1020.14 1020.40 1019.49 1017.75 1017.00 1016.60 1016.81 1017.37 1017.12 1017.59 1018.80 1019.88 1020.65 1021.29 1021.29 1021.33 1021.65 1022.09 1022.56 1022.83 1023.07 1023.27 1023.57 1023.60 1023.44 1023.45 1023.42 1023.11 1022.78 1022.50 1022.03 1021.63 1021.33 1021.08 1020.66 1020.05 1019.49 1018.95 1018.33 1017.98 1017.09
1018.33 1018.55 1018.88 1019.71 1019.80 1018.85 1017.48 1017.17 1017.22 1018.26 1018.21 1017.75 1018.24 1019.09 1019.94 1020.65 1020.94 1021.12 1021.63 1021.97 1022.20 1022.50 1022.88 1023.13 1023.38 1023.62 1023.51 1023.40 1023.42 1023.36 1023.06 1022.74 1022.30 1021.92 1021.47 1021.07 1020.68 1020.24 1019.70 1018.99 1018.55 1018.05 1017.58 1016.93
1017.42 1018.08 1018.58 1019.32 1019.31 1018.22 1016.72 1017.58 1017.44 1017.31 1017.84 1018.17 1018.64 1019.12 1019.79 1020.47 1021.11 1021.56 1022.12 1022.45 1022.79 1022.98 1023.15 1023.32 1023.61 1023.69 1023.63 1023.64 1023.53 1023.38 1023.14 1022.50 1022.23 1021.86 1021.36 1020.86 1020.35 1019.95 1019.37 1018.91 1018.16 1017.71 1017.17 1016.50
1017.88 1016.74 1017.16 1017.29 1017.05 1016.46 1016.58 1016.50 1016.65 1016.96 1017.52 1018.45 1018.91 1019.49 1019.90 1020.65 1021.34 1022.04 1022.53 1022.93 1023.09 1023.35 1023.57 1023.65 1023.88 1023.72 1023.65 1023.63 1023.56 1023.32 1022.80 1022.64 1022.35 1021.83 1021.23 1020.55 1019.90 1019.50 1018.97 1018.65 1017.95 1017.31 1016.65 1016.07
1017.35 1016.85 1016.80 1017.01 1016.86 1016.76 1016.81 1016.80 1017.07 1017.30 1018.04 1018.62 1019.20 1019.80 1020.35 1020.98 1021.50 1021.97 1022.45 1022.88 1023.33 1023.72 1024.08 1024.16 1024.35 1024.34 1023.92 1023.80 1023.83 1023.78 1023.35 1022.97 1022.76 1022.05 1021.30 1020.52 1019.84 1018.96 1018.18 1017.92 1017.39 1016.74 1016.33 1015.69
1016.56 1016.64 1016.70 1016.98 1017.13 1017.15 1017.22 1017.21 1017.41 1017.89 1018.39 1019.04 1019.69 1020.21 1020.76 1021.34 1021.89 1022.36 1023.02 1023.57 1024.03 1024.49 1024.75 1024.88 1025.02 1024.72 1024.27 1024.08 1023.93 1023.73 1023.46 1023.15 1022.71 1022.00 1021.13 1020.30 1019.52 1018.60 1017.60 1016.92 1016.68 1016.15 1015.56 1015.13
1015.76 1015.67 1015.87 1015.72 1015.87 1015.96 1016.68 1017.00 1017.58 1018.18 1018.92 1019.55 1020.24 1021.02 1021.54 1022.00 1022.61 1023.18 1023.74 1024.34 1024.84 1025.30 1025.48 1025.44 1025.31 1025.05 1024.53 1024.20 1023.79 1023.61 1023.51 1023.36 1023.12 1022.10 1021.00 1020.15 1019.23 1018.18 1017.25 1016.39 1015.44 1015.04 1014.53 1014.01
Wind_Speed
2 5 7 9 5 3 7 4 3 1 1 3 5 6 11 9 6 10 10 8 9 10 7 7 8 7 8 8 9 11 11 12 10 8 10 10 11 9 8 8 10 12 12 13
6 5 6 8 5 6 5 5 3 1 3 2 4 9 10 9 8 5 8 8 8 7 7 8 7 4 6 7 10 8 12 11 12 10 9 7 10 9 10 8 9 12 13 14
7 3 9 7 4 6 2 5 4 3 2 4 5 7 7 4 3 7 7 4 5 7 7 8 8 7 3 4 7 7 8 8 8 11 3 3 3 2 4 8 9 10 13 13
4 3 8 6 5 6 4 6 5 5 4 2 3 5 7 5 8 6 8 8 7 8 7 6 7 7 8 7 3 5 6 7 7 8 6 11 10 10 10 10 8 7 11 12
5 7 5 4 6 7 4 4 6 4 6 4 4 3 9 5 4 7 9 8 9 8 6 8 8 7 6 7 7 6 3 4 5 7 8 8 9 6 3 4 7 10 9 11
3 1 2 5 4 3 10 7 8 5 4 2 3 5 7 1 3 3 4 8 8 8 8 8 6 6 7 7 8 7 7 5 3 3 5 7 10 7 4 4 5 5 7 7
2 1 1 4 7 5 4 6 3 4 3 5 1 2 8 3 1 2 4 6 7 6 8 9 10 10 10 10 9 7 9 8 7 5 3 4 5 5 6 5 4 5 4 4
8 4 8 4 6 10 6 7 7 8 5 3 3 6 5 2 3 5 5 3 6 9 7 8 8 8 9 10 9 9 9 8 7 5 5 5 5 3 4 4 4 5 5 6
5 3 0 2 3 7 5 4 5 9 3 4 4 5 2 2 5 6 6 8 8 7 7 8 9 9 9 11 10 9 9 7 8 8 6 5 4 4 5 6 5 4 4 4
7 4 2 1 3 3 5 9 5 3 4 3 3 6 7 4 4 2 6 6 6 7 9 9 8 8 7 7 7 11 11 10 8 8 6 5 7 6 5 5 6 6 5 4
6 5 1 3 7 9 4 3 5 5 5 7 4 7 7 11 7 7 5 6 7 8 8 7 6 7 7 8 10 9 12 11 12 10 8 7 7 7 6 5 5 6 5 6
5 6 5 7 2 1 1 6 7 7 5 1 4 5 7 10 7 5 3 4 5 6 6 6 7 7 8 8 8 9 9 10 10 10 9 7 6 6 5 6 6 6 7 6
8 3 4 5 3 3 4 4 4 6 4 8 8 6 5 6 6 2 6 5 4 5 6 5 6 7 6 6 5 5 4 4 5 7 8 10 12 13 12 10 8 6 6 6
5 3 8 14 4 8 6 6 6 6 4 5 7 7 9 9 5 5 4 4 5 5 4 4 5 3 3 2 2 3 3 4 6 6 6 7 8 8 8 9 10 9 8 7
3 6 3 3 4 3 5 7 10 11 15 10 8 9 18 12 8 8 7 5 6 6 6 6 5 5 5 7 7 8 8 8 6 6 6 6 6 6 7 8 8 8 7 8
4 3 4 2 2 4 2 3 6 2 4 5 5 4 6 5 8 7 7 6 5 5 4 4 4 5 9 12 12 12 11 11 9 10 9 8 6 6 6 6 7 7 7 7
3 4 3 4 1 4 5 9 8 4 3 7 7 7 7 4 5 5 7 6 5 4 4 6 7 7 7 7 6 8 8 8 8 8 9 8 9 10 10 9 10 10 9 8
7 7 2 3 2 4 4 3 4 7 5 7 3 6 7 6 4 4 4 6 5 5 6 6 6 6 6 6 6 6 6 6 7 9 8 7 9 11 10 9 9 9 8 9
1 7 4 4 3 4 3 5 8 8 7 9 6 8 5 4 3 1 6 5 5 4 1 1 2 3 5 6 7 7 10 9 9 9 9 9 9 11 11 11 10 9 9 8
2 4 3 5 4 7 4 1 4 5 6 5 8 8 9 7 3 4 6 4 3 2 1 3 4 3 5 5 4 6 7 7 8 8 10 9 9 9 10 10 10 5 7 9
5 2 6 4 3 9 7 5 3 8 9 2 6 8 8 5 3 3 5 2 0 1 3 4 4 5 7 6 5 7 7 9 8 7 10 9 8 8 9 8 3 7 8 7
9 8 5 3 3 10 9 3 11 5 3 6 5 5 6 6 6 3 2 4 5 6 5 4 5 6 6 5 3 7 8 8 6 9 11 11 10 8 8 7 8 6 6 8
3 6 7 9 7 1 5 3 3 4 7 4 6 5 6 5 3 4 5 6 5 5 4 4 4 7 6 5 3 7 9 8 10 11 13 14 13 10 8 8 9 6 4 6
3 2 3 4 2 5 5 4 4 4 6 7 6 6 3 2 3 4 2 2 3 1 3 3 5 7 10 5 4 6 8 8 7 10 10 11 13 14 11 5 6 6 5 5
4 8 6 1 3 5 3 2 7 7 8 8 4 3 2 1 2 2 2 1 2 3 3 3 8 9 11 9 8 4 6 5 9 9 9 10 9 10 12 11 7 7 6 6
6 8 6 6 10 6 7 8 7 8 7 7 7 5 4 2 2 2 3 2 2 4 5 7 8 8 12 13 13 8 5 5 6 11 9 8 9 9 9 11 10 11 14 15
Wind_Direction
19 101 183 189 169 121 128 125 158 198 348 151 225 263 277 286 269 276 266 280 272 267 285 265 257 227 214 210 200 200 186 197 181 189 197 209 213 210 213 210 201 195 199 198
54 212 195 121 137 120 124 132 186 91 55 121 8 287 269 276 267 267 300 298 292 294 316 309 305 264 218 226 221 205 208 193 196 197 207 208 214 217 222 213 211 202 199 200
151 215 139 122 142 131 119 151 180 144 68 67 336 311 329 298 351 339 337 320 352 311 333 350 5 10 359 275 242 223 221 209 206 210 150 87 63 52 201 217 215 211 206 205
162 150 139 125 161 125 170 189 133 127 86 210 17 284 304 331 333 29 13 19 14 6 18 22 26 31 24 1 322 232 227 211 203 180 181 201 215 222 226 230 222 216 208 209
221 152 141 133 191 153 180 122 116 96 94 77 339 81 271 8 37 1 359 10 18 9 18 27 26 26 26 19 15 2 326 251 212 189 198 201 223 230 213 189 215 219 215 216
99 1 154 160 74 90 155 78 50 58 91 33 260 146 283 111 72 12 3 17 18 12 20 34 32 39 36 29 32 30 31 21 336 224 212 203 216 212 192 197 205 212 221 224
71 114 315 119 83 46 86 88 16 9 20 212 356 86 236 273 91 121 55 23 21 22 33 32 29 21 20 20 19 25 29 26 10 357 297 260 258 250 231 218 206 190 208 219
154 208 170 185 170 165 174 161 155 190 185 208 75 224 257 348 19 76 60 40 56 42 29 35 27 23 18 11 15 11 18 20 22 22 344 321 297 270 256 226 215 227 224 226
133 228 344 84 136 144 188 183 162 105 27 61 217 275 17 2 53 42 57 48 37 39 38 38 27 22 17 15 7 8 8 9 17 3 6 355 323 297 278 272 249 245 244 245
199 117 355 86 102 30 158 160 83 0 130 218 274 283 193 185 138 96 52 44 28 26 32 31 27 24 22 20 15 24 24 18 354 3 9 351 330 318 313 293 276 262 264 248
146 107 253 127 214 163 132 167 58 114 145 159 155 250 186 161 164 115 72 30 32 30 33 28 25 22 20 20 22 19 22 13 11 5 358 360 354 343 326 296 287 268 264 241
192 121 157 201 282 266 177 180 151 141 216 269 141 264 151 152 146 145 145 45 46 57 37 30 22 17 20 19 16 11 14 14 4 348 353 351 337 342 345 328 312 300 279 271
183 201 77 1 350 357 206 185 129 105 83 192 140 240 168 144 140 128 129 111 82 63 49 38 29 21 9 359 357 350 348 354 347 348 359 356 357 354 349 341 330 316 298 282
107 119 196 213 182 137 188 183 182 160 171 168 216 145 202 206 169 158 162 147 118 87 61 36 24 2 330 293 286 293 313 356 1 353 352 352 346 338 333 330 332 330 321 301
114 145 104 55 51 107 166 175 178 193 210 188 194 173 200 200 182 175 165 144 108 69 42 24 7 347 345 355 357 359 7 9 357 345 342 339 319 316 319 323 321 316 316 311
3 115 123 136 60 49 168 178 183 169 147 109 155 231 218 129 127 144 154 136 101 77 45 18 358 355 5 7 2 353 353 347 347 343 335 328 327 321 315 314 315 307 303 298
111 126 138 186 112 75 274 205 185 177 183 145 196 192 149 150 153 163 151 123 98 69 34 18 6 355 354 355 345 339 331 326 334 331 327 329 332 331 330 325 324 322 320 313
156 136 97 145 129 200 231 61 149 180 190 210 121 151 156 163 169 146 152 136 107 71 32 12 356 343 344 338 339 323 328 324 326 322 322 327 331 325 320 318 314 313 311 310
162 129 107 153 198 310 243 214 159 167 250 206 166 157 155 123 78 274 168 133 142 139 153 249 291 295 314 330 329 337 330 331 332 325 323 323 323 318 319 316 315 308 303 310
134 34 144 138 137 210 239 262 132 94 277 191 176 149 150 143 151 246 155 140 161 131 102 341 326 305 303 306 316 316 303 307 303 306 310 307 302 297 302 303 308 294 295 294
158 142 171 165 181 284 224 192 163 104 236 158 130 140 142 148 171 148 149 179 28 322 310 304 298 300 298 313 323 307 306 303 303 304 305 299 291 282 281 285 269 295 297 289
170 163 168 121 110 261 170 113 167 184 82 135 112 125 123 120 129 135 249 271 257 256 286 290 279 284 292 308 318 300 292 300 311 312 309 303 300 291 294 285 291 276 285 295
209 183 176 178 202 343 176 149 158 145 135 153 122 118 115 115 147 190 201 220 239 256 280 296 287 303 314 301 264 295 305 322 314 310 307 308 306 301 284 287 293 295 262 281
271 200 139 99 198 167 167 83 126 118 120 123 121 126 117 199 280 278 280 312 324 303 324 326 333 311 303 296 279 260 297 304 306 297 294 299 302 305 302 273 279 279 276 275
184 144 157 276 87 82 310 205 152 124 122 118 110 135 185 211 276 279 329 348 19 346 339 350 316 308 304 311 308 273 294 315 308 296 294 291 287 290 299 294 279 277 259 241
186 166 175 210 175 154 189 187 168 150 167 165 156 160 144 92 323 352 330 32 3 350 328 319 314 305 313 316 313 314 296 315 308 306 301 296 297 294 291 291 292 278 291 290